The Cajun Classic - inventory

Station: 20 Miles - T Race

Distance: 20 Miles    

Release: 22-Jun-2017 12:45

Weather Release:    Arrival:

Wind at Release:     Wind at Arrival:

Temp at Release: °    Temp at Arrival: °

Lofts: 45

Birds: 181

Clocked: 176

Good Luck to Everyone!
Drops Pos Breeder Pigeon Name Color Sex Ent Arrival Speed To Win Eligible
1 A P C Loft - TX 17154-AU17-APC BB C 1 15:16:01.20 233.082 00:00:00 Yes
1 New Orleans Boys 2 - LA 0510-AU17-DELT BB H 1 15:16:01.20 233.082 00:00:00 Yes
3 R & R Loft - LA 0140-AU17-MILL BBPD H 1 15:16:01.30 233.079 00:00:00 Yes
3 Lyons Loft - TX 1205-AU17-TXHC BB C 1 15:16:01.30 233.079 00:00:00 Yes
5 Texas Trio 2 - TX 4084-AU17-TEXA BB H 1 15:16:01.60 233.071 00:00:00 Yes
5 Red Ass Ranch - TX 0132-AU17-RAR BBWF H 1 15:16:01.60 233.071 00:00:00 Yes
7 Ed Minvielle - LA 17041-AU17-A BBWF H 1 15:16:01.80 233.066 00:00:01 Yes
8 Mcconnell Loft - FL 1802-AU17-GHC BBPD H 1 15:16:02.10 233.059 00:00:01 Yes
9 Black Gold Loft - TX 22156-AU17-AA BB C 1 15:16:03.10 233.033 00:00:02 Yes
10 A P C Loft - TX 17159-AU17-APC BB H 2 15:16:10.30 232.848 00:00:09 Yes
11 Ganus Family Loft - IN 0362-AU17-GFL BB C 1 15:16:10.60 232.840 00:00:09 Yes
12 J B Loft - LA 0924-AU17-BRFT Pied Piper Ii BBWF C 1 15:16:10.70 232.838 00:00:09 Yes
13 Pigeon Palace - LA 0350-AU17-LAF BB C 1 15:16:12.60 232.789 00:00:11 Yes
14 John Fukumoto - HI 0388-AU17-HAWN BB C 1 15:16:13.30 232.771 00:00:12 Yes
15 Pigeon Palace - LA 0329-AU17-LAF BBWF C 2 15:16:30.10 232.341 00:00:29 Yes
16 Johnson/Mailhes - LA 0184-AU17-LAF BB C 1 15:16:37.70 232.147 00:00:36 Yes
17 El Dorado Loft - TX 0153-AU17-TEXA BB C 1 15:16:42.80 232.017 00:00:42 Yes
18 Farmers Loft Of La - LA 0733-AU17-FARM BBP H 1 15:16:47.50 231.897 00:00:46 Yes
19 Mcconnell Loft - FL 1811-AU17-GHC BB C 2 15:16:48.50 231.871 00:00:47 Yes
20 Texas Trio 2 - TX 1017-AU17-VPR BBWF H 2 15:16:49.10 231.856 00:00:48 Yes
20 Lighthouse Racing Pigeons - OH 4141-AU17-IHC BBWF C 1 15:16:49.10 231.856 00:00:48 Yes
22 Cajun Express Loft - LA 0816-AU17-CEL BB H 1 15:16:49.60 231.843 00:00:48 Yes
23 Pigeon Palace - LA 0320-AU17-LAF BBWF C 3 15:16:50.10 231.831 00:00:49 Yes
24 Lyons Loft - TX 1202-AU17-TXHC BB C 2 15:16:51.90 231.785 00:00:51 Yes
25 Ed Minvielle - LA 17040-AU17-A BBWF H 2 15:16:52.00 231.782 00:00:51 Yes
26 Lighthouse Racing Pigeons - OH 4144-AU17-IHC BB C 2 15:16:52.70 231.764 00:00:52 Yes
27 New Orleans Boys 2 - LA 0307-AU17-MET BB C 2 15:16:53.30 231.749 00:00:52 Yes
27 New Orleans Boys 2 - LA 0523-AU17-DELT BBPD C 3 15:16:53.30 231.749 00:00:52 Yes
29 R & R Loft - LA 0139-AU17-MILL BB C 2 15:16:54.60 231.716 00:00:53 Yes
30 Bucktown Loft - LA 1628-AU17-AUCO BB C 1 15:16:58.10 231.627 00:00:57 Yes
31 Nanez Family Lofts - WI 4169-AU17-NANE BB C 1 15:16:59.40 231.594 00:00:58 Yes
32 Gilbert Wiltz - TX 10938-AU17-AA BBWF C 1 15:16:59.70 231.587 00:00:58 Yes
33 Ed Minvielle - LA 17021-AU17-A BBWF C 3 15:17:00.50 231.566 00:00:59 Yes
34 John Fukumoto - HI 0300-AU17-HAWN BB C 2 15:17:01.70 231.536 00:01:01 Yes
35 Bucktown Loft - LA 1611-AU17-AUCO BB H 2 15:17:02.60 231.513 00:01:01 Yes
36 Carroll Hoover - PA 1067-IF17-RLPC BB H 1 15:17:04.60 231.462 00:01:03 Yes
37 Carroll Hoover - PA 1071-IF17-RLPC BB H 2 15:17:04.90 231.455 00:01:04 Yes
38 Red Ass Ranch - TX 0139-AU17-RAR BB H 2 15:17:05.40 231.442 00:01:04 Yes
39 Nanez Family Lofts - WI 4175-AU17-NANE BB H 2 15:17:06.00 231.427 00:01:05 Yes
40 Mcconnell Loft - FL 1844-AU17-GHC BB H 3 15:17:09.20 231.346 00:01:08 Yes
41 El Dorado Loft - TX 0152-AU17-TEXA BB C 2 15:17:11.40 231.290 00:01:10 Yes
42 Texas Trio 2 - TX 4035-AU17-TEXA BBWF C 3 15:17:12.30 231.267 00:01:11 Yes
43 Black Magic Loft - TX 0402-AU17-BLAC BB H 1 15:17:13.30 231.242 00:01:12 Yes
43 Texas Trio 2 - TX 4135-AU17-TEXA BB C 4 15:17:13.30 231.242 00:01:12 Yes
45 Nanez Family Lofts - WI 4190-AU17-NANE BB C 3 15:17:13.90 231.227 00:01:13 Yes
46 H H H No 2 - TX 19854-AU17-FOYS BB H 1 15:17:14.60 231.209 00:01:13 Yes
46 A P C Loft - TX 17149-AU17-APC BBWF H 3 15:17:14.60 231.209 00:01:13 Yes
46 Carroll Hoover - PA 1062-IF17-RLPC BB C 3 15:17:14.60 231.209 00:01:13 Yes
49 R & R Loft - LA 0143-AU17-MILL BB H 3 15:17:15.30 231.191 00:01:14 Yes
50 Nanez Family Lofts - WI 4292-AU17-NANE BBWF H 4 15:17:16.00 231.173 00:01:15 Yes
51 Texas Trio 2 - TX 1018-AU17-VPR BB H 5 15:17:16.80 231.153 00:01:16 Yes
51 Pigeon Palace - LA 0364-AU17-LAF BB H 4 15:17:16.80 231.153 00:01:16 Yes
53 H H H No 2 - TX 19862-AU17-FOYS BB H 2 15:17:18.80 231.103 00:01:18 Yes
54 Gilbert Wiltz - TX 10912-AU17-AA BBWF H 2 15:17:20.40 231.062 00:01:19 Yes
55 Red Ass Ranch - TX 0134-AU17-RAR BBWF C 3 15:17:20.80 231.052 00:01:20 Yes
56 Black Magic Loft - TX 0403-AU17-BLAC BB C 2 15:17:21.50 231.034 00:01:20 Yes
56 Poorshow Loft - LA 22401-AU17-AA BB C 1 15:17:21.50 231.034 00:01:20 Yes
58 Hynes - LA 1362-AU17-SLID BB H 1 15:17:24.80 230.951 00:01:24 Yes
59 R & R Loft - LA 0136-AU17-MILL BB C 4 15:17:26.60 230.905 00:01:25 Yes
60 John Fukumoto - HI 0366-AU17-HAWN BB H 3 15:17:27.30 230.888 00:01:26 Yes
61 Hollywood Lou Loft - FL 0037-AU17-HLOU BBWF C 1 15:17:34.00 230.719 00:01:33 Yes
62 Ed Minvielle - LA 17032-AU17-A BB H 4 15:17:35.40 230.684 00:01:34 Yes
63 Red Ass Ranch - TX 0137-AU17-RAR BB C 4 15:17:35.60 230.678 00:01:34 Yes
64 Lewis Loft - LA 7322-AU17-CENL BB C 1 15:17:36.10 230.666 00:01:35 Yes
64 J & K Of Tx - TX 0401-AU17-PB BBWF H 1 15:17:36.10 230.666 00:01:35 Yes
66 Southern Belle - GA 0013-AU17-NEA BB H 1 15:17:36.40 230.658 00:01:35 Yes
67 Clear Springs Loft - FL 17017-AU17-WARD BB H 1 15:17:37.00 230.643 00:01:36 Yes
67 Ganus Family Loft - IN 0746-AU17-GFL BB C 2 15:17:37.00 230.643 00:01:36 Yes
69 Two Cousins - LA 3026-AU17-BAYO BB C 1 15:17:37.10 230.641 00:01:36 Yes
70 Red Ass Ranch - TX 0135-AU17-RAR BB C 5 15:17:38.00 230.618 00:01:37 Yes
70 Lyons Loft - TX 1204-AU17-TXHC BB H 3 15:17:38.00 230.618 00:01:37 Yes
72 Hollywood Lou Loft - FL 0033-AU17-HLOU BB H 2 15:17:38.70 230.600 00:01:38 Yes
73 Pigeon Palace - LA 0332-AU17-LAF BB H 5 15:17:39.10 230.590 00:01:38 Yes
74 John Fukumoto - HI 0377-AU17-HAWN BB C 4 15:17:39.60 230.578 00:01:38 Yes
75 Pigeon Palace - LA 0369-AU17-LAF BB H 6 15:17:39.70 230.575 00:01:39 Yes
76 A P C Loft - TX 17139-AU17-APC BB H 4 15:17:40.40 230.558 00:01:39 Yes
77 R & R Loft - LA 0150-AU17-MILL BB C 5 15:17:42.00 230.517 00:01:41 Yes
78 Bottoms Up Loft - TX 8657-AU17-AA BBP C 1 15:17:44.30 230.460 00:01:43 Yes
79 Black Gold Loft - TX 22155-AU17-AA BB C 2 15:17:45.00 230.442 00:01:44 Yes
80 Ganus Family Loft - IN 0732-AU17-GFL BB C 3 15:17:45.70 230.424 00:01:45 Yes
81 H H H No 2 - TX 19853-AU17-FOYS BB C 3 15:17:50.80 230.296 00:01:50 Yes
82 Poorshow Loft - LA 22410-AU17-AA BB H 2 15:18:02.10 230.013 00:02:01 Yes
83 Black Gold Loft - TX 22119-AU17-AA BB C 3 15:18:02.20 230.010 00:02:01 Yes
84 John Fukumoto - HI 0355-AU17-HAWN BB C 5 15:18:05.50 229.928 00:02:04 Yes
85 Clear Springs Loft - FL 17034-AU17-WARD BB C 2 15:18:06.60 229.900 00:02:05 Yes
86 Black Magic Loft - TX 0434-AU17-BLAC BB H 3 15:18:07.30 229.883 00:02:06 Yes
87 Vick Corso - LA 1238-AU17-CORS BB H 1 15:18:12.40 229.755 00:02:11 Yes
88 J & K Of Tx - TX 0402-AU17-PB BBWF H 2 15:18:20.20 229.560 00:02:19 Yes
89 Red Ass Ranch - TX 0133-AU17-RAR BBWF H 6 15:18:33.50 229.229 00:02:32 Yes
90 Nanez Family Lofts - WI 4295-AU17-NANE BB H 5 15:18:35.00 229.192 00:02:34 Yes
91 Cajun Express Loft - LA 0811-AU17-CEL BB C 2 15:18:38.80 229.097 00:02:38 Yes
92 B & S Loft 2 - LA 0773-AU17-LAF BC H 1 15:18:49.20 228.839 00:02:48 Yes
93 Bottoms Up Loft - TX 8667-AU17-AA BB C 2 15:20:03.30 227.016 00:04:02 Yes
94 Toca Ridge Loft - LA 7384-AU17-AA GRIZ C 1 15:24:07.80 221.203 00:08:07 Yes
95 Bottoms Up Loft - TX 8671-AU17-AA BC H 3 15:24:11.70 221.112 00:08:11 Yes
96 J & K Of Tx - TX 0421-AU17-PB RC C 3 15:24:15.90 221.015 00:08:15 Yes
97 J B Loft - LA 0923-AU17-BRFT Chief BCWF C 2 15:24:19.30 220.937 00:08:18 Yes
98 Carroll Hoover - PA 1066-IF17-RLPC SIL H 4 15:24:40.60 220.445 00:08:39 Yes
99 New Orleans Boys 2 - LA 0521-AU17-DELT RC C 4 15:24:50.40 220.220 00:08:49 Yes
100 New Orleans Boys 2 - LA 0340-AU17-MET BB H 5 15:24:52.60 220.170 00:08:51 Yes

There are 181 bird records

Note: These Race Results are unofficial and subject to change until verified by the Race Committee and declared final.